When you browse on this site, cookies collect data to enhance your experience and personalize the content and advertising you see.
Visit our Privacy Policy to learn more. By continuing to use the site, you agree to this use of cookies and data.
  • Em Portugal
  • Lista de países
  • Para 7 dias
  • Temperatura da água
  • Mapa do tempo
  • Widgets de tempo
  • user-avatar
    Iniciar Sessão

    Previsão horária em Beja

    Hoje, 16 Fevereiro, Domingo

    Tempo Temperatura Precipitação Vento Pressão Humidade
    00:00 +9°C° 0 mm 0 m/s 748 mmHg 86%
    01:00 +9°C° 0 mm 0 m/s 748 mmHg 87%
    02:00 +8°C° 0 mm 0 m/s 748 mmHg 87%
    03:00 +8°C° 0 mm 0 m/s 748 mmHg 88%
    04:00 +8°C° 0 mm 0 m/s 748 mmHg 88%
    05:00 +9°C° 0 mm 1 m/s 748 mmHg 90%
    06:00 +10°C° 0 mm 1 m/s 749 mmHg 87%
    07:00 +11°C° 0 mm 1 m/s 749 mmHg 84%
    08:00 +12°C° 0 mm 1 m/s 749 mmHg 81%
    09:00 +14°C° 0 mm 1 m/s 749 mmHg 74%
    10:00 +16°C° 0 mm 1 m/s 749 mmHg 67%
    11:00 +19°C° 0 mm 1 m/s 750 mmHg 61%
    12:00 +19°C° 0 mm 1 m/s 749 mmHg 58%
    13:00 +19°C° 0 mm 2 m/s 749 mmHg 56%
    14:00 +20°C° 0 mm 2 m/s 749 mmHg 54%
    15:00 +18°C° 0 mm 2 m/s 748 mmHg 62%
    16:00 +16°C° 0 mm 2 m/s 748 mmHg 69%
    17:00 +15°C° 0 mm 2 m/s 748 mmHg 77%
    18:00 +13°C° 0 mm 2 m/s 748 mmHg 82%
    19:00 +12°C° 0 mm 2 m/s 749 mmHg 87%
    20:00 +11°C° 0 mm 1 m/s 749 mmHg 92%
    21:00 +11°C° 0 mm 1 m/s 749 mmHg 93%
    22:00 +10°C° 0 mm 1 m/s 749 mmHg 93%
    23:00 +10°C° 0 mm 1 m/s 750 mmHg 94%

    Amanhã, 17 Fevereiro, Segunda-feira

    Tempo Temperatura Precipitação Vento Pressão Humidade
    00:00 +10°C° 0 mm 1 m/s 749 mmHg 95%
    01:00 +10°C° 0 mm 1 m/s 749 mmHg 95%
    02:00 +10°C° 0 mm 1 m/s 749 mmHg 96%
    03:00 +10°C° 0 mm 1 m/s 749 mmHg 97%
    04:00 +9°C° 0 mm 0 m/s 749 mmHg 97%
    05:00 +9°C° 0 mm 0 m/s 749 mmHg 97%
    06:00 +10°C° 0 mm 0 m/s 749 mmHg 96%
    07:00 +12°C° 0 mm 1 m/s 750 mmHg 95%
    08:00 +13°C° 0 mm 1 m/s 750 mmHg 93%
    09:00 +14°C° 0 mm 1 m/s 750 mmHg 90%
    10:00 +15°C° 0 mm 1 m/s 750 mmHg 88%
    11:00 +16°C° 0 mm 1 m/s 751 mmHg 85%
    12:00 +17°C° 0.1 mm 2 m/s 750 mmHg 83%
    13:00 +17°C° 0.1 mm 3 m/s 750 mmHg 81%
    14:00 +18°C° 0.1 mm 4 m/s 750 mmHg 80%
    15:00 +15°C° 0 mm 4 m/s 750 mmHg 81%
    16:00 +14°C° 0 mm 4 m/s 750 mmHg 83%
    17:00 +13°C° 0 mm 4 m/s 750 mmHg 84%
    18:00 +12°C° 0 mm 4 m/s 750 mmHg 82%
    19:00 +10°C° 0 mm 4 m/s 750 mmHg 80%
    20:00 +8°C° 0 mm 4 m/s 751 mmHg 78%
    21:00 +7°C° 0 mm 4 m/s 751 mmHg 80%
    22:00 +7°C° 0 mm 3 m/s 751 mmHg 82%
    23:00 +5°C° 0 mm 3 m/s 751 mmHg 84%

    Depois de amanhã, 18 Fevereiro, Terça-feira

    Tempo Temperatura Precipitação Vento Pressão Humidade
    00:00 +5°C° 0 mm 3 m/s 750 mmHg 85%
    01:00 +5°C° 0 mm 3 m/s 750 mmHg 86%
    02:00 +4°C° 0 mm 3 m/s 750 mmHg 87%
    03:00 +4°C° 0 mm 3 m/s 750 mmHg 88%
    04:00 +4°C° 0 mm 3 m/s 750 mmHg 89%
    05:00 +3°C° 0 mm 3 m/s 749 mmHg 90%
    06:00 +4°C° 0 mm 3 m/s 750 mmHg 87%
    07:00 +5°C° 0 mm 3 m/s 750 mmHg 83%
    08:00 +7°C° 0 mm 3 m/s 751 mmHg 79%
    09:00 +9°C° 0 mm 3 m/s 751 mmHg 72%
    10:00 +11°C° 0 mm 4 m/s 751 mmHg 66%
    11:00 +13°C° 0 mm 4 m/s 751 mmHg 59%
    12:00 +14°C° 0 mm 4 m/s 750 mmHg 60%
    13:00 +15°C° 0 mm 4 m/s 750 mmHg 60%
    14:00 +15°C° 0 mm 5 m/s 749 mmHg 60%
    15:00 +14°C° 0 mm 4 m/s 749 mmHg 66%
    16:00 +13°C° 0 mm 4 m/s 749 mmHg 72%
    17:00 +12°C° 0 mm 3 m/s 749 mmHg 78%
    18:00 +10°C° 0 mm 3 m/s 749 mmHg 80%
    19:00 +8°C° 0 mm 4 m/s 750 mmHg 82%
    20:00 +7°C° 0 mm 4 m/s 750 mmHg 84%
    21:00 +8°C° 0 mm 3 m/s 750 mmHg 84%
    22:00 +7°C° 0 mm 3 m/s 750 mmHg 84%
    23:00 +7°C° 0 mm 3 m/s 750 mmHg 85%

    19 Fevereiro, Quarta-feira

    Tempo Temperatura Precipitação Vento Pressão Humidade
    00:00 +5°C° 0 mm 3 m/s 750 mmHg 84%
    01:00 +5°C° 0 mm 3 m/s 750 mmHg 83%
    02:00 +5°C° 0 mm 3 m/s 749 mmHg 82%
    03:00 +4°C° 0 mm 3 m/s 749 mmHg 83%
    04:00 +5°C° 0 mm 2 m/s 749 mmHg 83%
    05:00 +5°C° 0 mm 2 m/s 749 mmHg 84%
    06:00 +6°C° 0 mm 2 m/s 750 mmHg 82%
    07:00 +7°C° 0 mm 2 m/s 750 mmHg 79%
    08:00 +9°C° 0 mm 2 m/s 750 mmHg 77%
    09:00 +12°C° 0 mm 2 m/s 750 mmHg 73%
    10:00 +13°C° 0 mm 3 m/s 750 mmHg 68%
    11:00 +17°C° 0 mm 3 m/s 750 mmHg 64%
    12:00 +18°C° 0 mm 3 m/s 750 mmHg 62%
    13:00 +19°C° 0 mm 3 m/s 749 mmHg 60%
    14:00 +20°C° 0 mm 3 m/s 749 mmHg 57%
    15:00 +18°C° 0 mm 2 m/s 748 mmHg 63%
    16:00 +17°C° 0 mm 2 m/s 748 mmHg 69%
    17:00 +15°C° 0 mm 2 m/s 748 mmHg 75%
    18:00 +14°C° 0 mm 2 m/s 748 mmHg 78%
    19:00 +13°C° 0 mm 2 m/s 748 mmHg 81%
    20:00 +12°C° 0 mm 2 m/s 748 mmHg 83%
    21:00 +10°C° 0 mm 2 m/s 748 mmHg 85%
    22:00 +11°C° 0 mm 1 m/s 747 mmHg 86%
    23:00 +11°C° 0 mm 1 m/s 747 mmHg 88%

    20 Fevereiro, Quinta-feira

    Tempo Temperatura Precipitação Vento Pressão Humidade
    00:00 +10°C° 0 mm 1 m/s 747 mmHg 89%
    01:00 +10°C° 0 mm 1 m/s 747 mmHg 90%
    02:00 +10°C° 0 mm 1 m/s 746 mmHg 91%
    03:00 +9°C° 0 mm 1 m/s 746 mmHg 91%
    04:00 +9°C° 0 mm 1 m/s 746 mmHg 92%
    05:00 +9°C° 0 mm 1 m/s 745 mmHg 92%
    06:00 +10°C° 0 mm 1 m/s 746 mmHg 90%
    07:00 +11°C° 0 mm 1 m/s 746 mmHg 87%
    08:00 +12°C° 0 mm 1 m/s 746 mmHg 84%
    09:00 +14°C° 0 mm 1 m/s 746 mmHg 79%
    10:00 +15°C° 0 mm 2 m/s 747 mmHg 74%
    11:00 +17°C° 0 mm 3 m/s 747 mmHg 69%
    12:00 +17°C° 0 mm 3 m/s 746 mmHg 67%
    13:00 +18°C° 0 mm 4 m/s 746 mmHg 65%
    14:00 +18°C° 0 mm 4 m/s 745 mmHg 63%
    15:00 +15°C° 0 mm 4 m/s 745 mmHg 67%
    16:00 +14°C° 0 mm 4 m/s 745 mmHg 72%
    17:00 +13°C° 0 mm 4 m/s 745 mmHg 76%
    18:00 +11°C° 0 mm 4 m/s 745 mmHg 80%
    19:00 +10°C° 0 mm 4 m/s 745 mmHg 85%
    20:00 +8°C° 0 mm 4 m/s 746 mmHg 89%
    21:00 +8°C° 0 mm 3 m/s 746 mmHg 91%
    22:00 +7°C° 0 mm 3 m/s 746 mmHg 93%
    23:00 +7°C° 0 mm 3 m/s 746 mmHg 95%

    21 Fevereiro, Sexta-feira

    Tempo Temperatura Precipitação Vento Pressão Humidade
    00:00 +7°C° 0 mm 3 m/s 746 mmHg 94%
    01:00 +5°C° 0 mm 3 m/s 746 mmHg 93%
    02:00 +5°C° 0 mm 3 m/s 746 mmHg 92%
    03:00 +5°C° 0 mm 3 m/s 746 mmHg 92%
    04:00 +5°C° 0 mm 3 m/s 746 mmHg 91%
    05:00 +4°C° 0 mm 3 m/s 746 mmHg 90%
    12:00 +18°C° 0 mm 4 m/s 748 mmHg 58%
    13:00 +19°C° 0 mm 4 m/s 748 mmHg 56%
    14:00 +20°C° 0 mm 3 m/s 748 mmHg 53%
    15:00 +18°C° 0 mm 4 m/s 748 mmHg 59%
    16:00 +17°C° 0 mm 4 m/s 748 mmHg 64%
    17:00 +14°C° 0 mm 4 m/s 748 mmHg 69%
    18:00 +13°C° 0 mm 4 m/s 749 mmHg 70%
    19:00 +12°C° 0 mm 4 m/s 750 mmHg 70%
    20:00 +11°C° 0 mm 4 m/s 750 mmHg 71%
    21:00 +11°C° 0 mm 4 m/s 750 mmHg 72%
    22:00 +10°C° 0 mm 3 m/s 751 mmHg 73%
    23:00 +9°C° 0 mm 3 m/s 751 mmHg 75%
    Mostrar mais